This is the latest recevied weather packets stored in our database for station/object OK2ZAW-21. If no packets are shown the sender has not sent any weather packets the latest 1 day(s).
| Time | Temp. | Humidity | Pressure | Rain* | Wind** | Luminosity | Snow |
|---|---|---|---|---|---|---|---|
| 1778079429 | 21.67° C | 48% | 1007.7 hPa | - | - | 438 W/m² | - |
| 1778079355 | 21.67° C | 49% | 1007.9 hPa | - | - | 438 W/m² | - |
| 1778079349 | 21.67° C | 49% | 1007.9 hPa | - | - | 438 W/m² | - |
| 1778079303 | 21.67° C | 49% | 1007.9 hPa | - | - | 438 W/m² | - |
| 1778079297 | 21.67° C | 49% | 1007.9 hPa | - | - | 438 W/m² | - |
| 1778079261 | 21.67° C | 49% | 1007.9 hPa | - | - | 438 W/m² | - |
| 1778079237 | 21.67° C | 48% | 1008 hPa | - | - | 438 W/m² | - |
| 1778079219 | 21.67° C | 48% | 1007.9 hPa | - | - | 438 W/m² | - |
| 1778079213 | 21.67° C | 48% | 1007.9 hPa | - | - | 438 W/m² | - |
| 1778079185 | 21.67° C | 48% | 1008 hPa | - | - | 438 W/m² | - |
| 1778079165 | 21.67° C | 48% | 1007.9 hPa | - | - | 438 W/m² | - |
| 1778079159 | 21.67° C | 48% | 1007.9 hPa | - | - | 438 W/m² | - |
| 1778079131 | 21.67° C | 48% | 1008 hPa | - | - | 438 W/m² | - |
| 1778079125 | 21.67° C | 48% | 1008 hPa | - | - | 438 W/m² | - |
| 1778079095 | 21.67° C | 48% | 1007.8 hPa | - | - | 438 W/m² | - |
| 1778079043 | 21.67° C | 48% | 1008 hPa | - | - | 438 W/m² | - |
| 1778078853 | 21.67° C | 49% | 1008.1 hPa | - | - | 438 W/m² | - |
| 1778078833 | 21.67° C | 49% | 1008.2 hPa | - | - | 438 W/m² | - |
| 1778078586 | 21.67° C | 48% | 1008.2 hPa | - | - | 438 W/m² | - |
| 1778078529 | 21.67° C | 46% | 1008.2 hPa | - | - | 438 W/m² | - |
| 1778078374 | 21.67° C | 49% | 1008.3 hPa | - | - | 438 W/m² | - |
| 1778078022 | 20° C | 53% | 1008.2 hPa | - | - | 438 W/m² | - |
| 1778077942 | 20° C | 52% | 1008.3 hPa | - | - | 438 W/m² | - |
| 1778077822 | 20° C | 51% | 1008.3 hPa | - | - | 438 W/m² | - |
| 1778077782 | 20.56° C | 50% | 1008.2 hPa | - | - | 438 W/m² | - |
* Rain since midnight (hover to see other rain measurements)
** Current wind speed in m/s (hover to see current wind gust speed)